Probability
0 0 0 0 0 0 0 0 0 0 0 0 0 0 0 0 0 0 0 0 0 0 0 0 0 0 0 0 0 0 0 0 0 0 0 0 0 0 0 0 0 0 0
0 0 0 0 0 0 0 0 0 0 0 0 0 0 0 0 0 0 0 0 0 0 0 0 0 0 0 0 0 0 0 0 0 0 0 0 0 0 0 0 0 0 0
0 0 0 0 0 0 0 0 0 0 0 0 0 0 0 0 0 0 0 0 0 0 0 0 0 0 0 0 0 0 0 0 0 0 0 0 0 0 0 0 0 0 0
0 0 0 0 0 0 0 0 0 0 0 0 0 0 0 0 0 0 0 0 0 0 0 0 0 0 0 0 0 0 0 0 0 0 0 0 0 0 0 0 0 0 0
0 0 0 0 0 0 0 0 0 0 0 0 0 0 0 0 0 0 0 0 0 0 0 0 0 0 0 0 0 0 0 0 0 0 0 0 0 0 0 0 0 0 0
0 0 0 0 0 0 0 0 0 0 0 0 0 0 0 0 0 0 0 0 0 0 0 0 0 0 0 0 0 0 0 0 0 0 0 0 0 0 0 0 0 0 0
0 0 0 0 0 0 0 0 0 0 0 0 0 0 0 0 0 0 0 0 0 0 0 0 0 0 0 0 0 0 0 0 0 0 0 0 0 0 0 0 0 0 0
0 0 0 0 0 0 0 0 0 0 0 0 0 0 0 0 0 0 0 0 0 0 0 0 0 0 0 0 0 0 0 0 0 0 0 0 0 0 0 0 0 0 0
0 0 0 0 0 0 0 0 0 0 0 0 0 0 0 0 0 0 0 0 0 0 0 0 0 0 0 0 0 0 0 0 0 0 0 0 0 0 0 0 0 0 0
0 0 0 0 0 0 0 0 0 0 0 0 0 0 0 0 0 0 0 0 0 0 0 0 0 0 0 0 0 0 0 0 0 0 0 0 0 0 0 0 0 0 0
0 0 0 0 0 0 0 0 0 0 0 0 0 0 0 0 0 0 0 0 0 0 0 0 0 0 0 0 0 0 0 0 0 0 0 0 0 0 0 0 0 0 0
0 0 0 0 0 0 0 0 0 0 0 0 0 0 0 0 0 0 0 0 0 0 0 0 0 0 0 0 0 0 0 0 0 0 0 0 0 0 0 0 0 0 0
0 0 0 0 0 0 0 0 0 0 0 0 0 0 0 0 0 0 0 0 0 0 0 0 0 0 0 0 0 0 0 0 0 0 0 0 0 0 0 0 0 0 0
0 0 0 0 0 0 0 0 0 0 0 0 0 0 0 0 0 0 0 0 0 0 0 0 0 0 0 0 0 0 0 0 0 0 0 0 0 0 0 0 0 0 0
0 0 0 0 0 0 0 0 0 0 0 0 0 0 0 0 0 0 0 0 0 0 0 0 0 0 0 0 0 0 0 0 0 0 0 0 0 0 0 0 0 0 0
0 0 0 0 0 0 0 0 0 0 0 0 0 0 0 0 0 0 0 0 0 0 0 0 0 0 0 0 0 0 0 0 0 0 0 0 0 0 0 0 0 0 0
0 0 0 0 0 0 0 0 0 0 0 0 0 0 0 0 0 0 0 0 0 0 0 0 0 0 0 0 0 0 0 0 0 0 0 0 0 0 0 0 0 0 0
0 0 0 0 0 0 0 0 0 0 0 0 0 0 0 0 0 0 0 0 0 0 0 0 0 0 0 0 0 0 0 0 0 0 0 0 0 0 0 0 0 0 0
0 0 0 0 0 0 0 0 0 0 0 0 0 0 0 0 0 0 0 0 0 0 0 0 0 0 0 0 0 0 0 0 0 0 0 0 0 0 0 0 0 0 0
0 0 0 0 0 0 0 0 0 0 0 0 0 0 0 0 0 0 0 0 0 0 0 0 0 0 0 0 0 0 0 0 0 0 0 0 0 0 0 0 0 0 0
0 0 0 0 0 0 0 0 0 0 0 0 0 0 0 0 0 0 0 0 0 0 0 0 0 0 0 0 0 0 0 0 0 0 0 0 0 0 0 0 0 0 0
0 0 0 0 0 0 0 0 0 0 0 0 0 0 0 0 0 0 0 0 0 0 0 0 0 0 0 0 0 0 0 0 0 0 0 0 0 0 0 0 0 0 0
0 0 0 0 0 0 0 0 0 0 0 0 0 0 0 0 0 0 0 0 0 0 0 0 0 0 0 0 0 0 0 0 0 0 0 0 0 0 0 0 0 0 0
0 0 0 0 0 0 0 0 0 0 0 0 0 0 0 0 0 0 0 0 0 0 0 0 0 0 0 0 0 0 0 0 0 0 0 0 0 0 0 0 0 0 0
0 0 0 0 0 0 0 0 0 0 0 0 0 0 0 0 0 0 0 0 0 0 0 0 0 0 0 0 0 0 0 0 0 0 0 0 0 0 0 0 0 0 0
0 0 0 0 0 0 0 0 0 0 0 0 0 0 0 0 0 0 0 0 0 0 0 0 0 0 0 0 0 0 0 0 0 0 0 0 0 0 0 0 0 0 0
Height
5604 5604 5603 5602 5602 5601 5601 5600 5600 5600 5600 5601 5601 5602 5602 5602 5602 5603 5604 5605 5606 5607 5608 5608 5610 5610 5610 5611 5611 5612 5613 5614 5616 5619 5619 5618 5618 5618 5618 5618 5618 5618 5618
5591 5590 5590 5589 5588 5588 5587 5586 5586 5585 5585 5586 5586 5587 5587 5587 5587 5587 5588 5589 5590 5591 5593 5593 5595 5595 5595 5596 5596 5597 5599 5600 5601 5603 5605 5604 5604 5605 5605 5605 5604 5604 5604
5579 5577 5577 5576 5575 5574 5573 5572 5571 5571 5571 5571 5571 5572 5572 5572 5573 5573 5573 5574 5575 5575 5576 5578 5579 5580 5581 5581 5582 5583 5584 5585 5586 5587 5590 5590 5591 5591 5591 5591 5591 5591 5590
5566 5565 5564 5563 5562 5560 5559 5558 5557 5557 5556 5556 5557 5557 5557 5558 5558 5558 5558 5559 5560 5561 5562 5563 5564 5565 5566 5567 5567 5568 5569 5570 5572 5573 5575 5577 5577 5577 5577 5578 5578 5577 5577
5554 5552 5550 5549 5547 5546 5545 5544 5543 5543 5542 5542 5542 5542 5542 5542 5543 5543 5543 5544 5545 5547 5548 5549 5550 5551 5552 5552 5553 5554 5555 5556 5558 5559 5561 5562 5564 5564 5564 5564 5564 5564 5564
5541 5539 5537 5535 5533 5532 5531 5530 5530 5530 5529 5529 5528 5528 5528 5528 5528 5528 5529 5530 5531 5533 5534 5535 5536 5537 5538 5539 5540 5541 5542 5543 5544 5546 5548 5549 5550 5551 5551 5550 5550 5550 5551
5528 5525 5523 5521 5520 5519 5518 5517 5516 5516 5516 5515 5515 5515 5515 5515 5515 5515 5515 5516 5518 5519 5520 5521 5522 5523 5524 5525 5526 5528 5529 5530 5532 5533 5535 5536 5537 5538 5538 5537 5537 5537 5538
5514 5512 5510 5508 5507 5506 5505 5504 5503 5502 5502 5502 5502 5501 5501 5502 5502 5502 5502 5502 5504 5506 5507 5508 5509 5510 5512 5512 5513 5515 5517 5518 5519 5520 5522 5524 5524 5524 5524 5525 5524 5525 5525
5501 5499 5497 5496 5495 5493 5492 5491 5490 5489 5489 5488 5488 5488 5489 5489 5489 5489 5489 5489 5491 5493 5494 5495 5497 5498 5500 5500 5501 5503 5504 5505 5506 5507 5509 5510 5511 5511 5511 5511 5512 5511 5512
5489 5487 5485 5484 5482 5481 5479 5478 5477 5476 5476 5475 5475 5475 5476 5476 5477 5476 5476 5477 5479 5481 5482 5483 5484 5485 5487 5487 5488 5490 5491 5493 5493 5494 5496 5497 5498 5498 5499 5499 5499 5499 5499
5477 5475 5473 5471 5470 5468 5467 5465 5464 5463 5463 5463 5463 5463 5463 5464 5464 5464 5464 5465 5466 5468 5469 5471 5472 5473 5474 5475 5476 5477 5479 5480 5480 5482 5483 5485 5485 5486 5487 5487 5487 5487 5486
5466 5463 5461 5459 5458 5456 5454 5453 5451 5450 5450 5450 5450 5451 5451 5452 5452 5453 5453 5453 5454 5455 5457 5459 5460 5461 5462 5464 5464 5466 5467 5467 5468 5470 5471 5473 5474 5475 5475 5475 5475 5474 5474
5454 5452 5450 5448 5446 5444 5442 5441 5440 5439 5438 5438 5438 5439 5440 5440 5441 5441 5442 5442 5443 5444 5445 5447 5448 5449 5451 5452 5453 5454 5455 5456 5457 5459 5461 5462 5463 5463 5463 5463 5463 5462 5462
5443 5441 5439 5438 5436 5434 5432 5430 5429 5428 5428 5428 5428 5428 5429 5429 5430 5431 5431 5432 5433 5434 5435 5436 5437 5438 5440 5441 5442 5443 5444 5445 5447 5449 5450 5451 5451 5452 5452 5452 5451 5451 5450
5432 5430 5429 5427 5425 5424 5423 5421 5420 5420 5418 5418 5418 5418 5419 5420 5420 5421 5421 5422 5423 5424 5424 5425 5426 5428 5429 5430 5431 5433 5434 5436 5437 5438 5439 5440 5440 5441 5440 5440 5440 5440 5439
5421 5419 5418 5417 5416 5415 5414 5413 5412 5411 5410 5409 5409 5409 5409 5410 5411 5412 5412 5412 5413 5414 5414 5415 5416 5417 5419 5420 5421 5423 5424 5426 5427 5428 5429 5429 5430 5430 5430 5429 5429 5428 5428
5410 5409 5408 5407 5406 5406 5405 5404 5404 5404 5402 5402 5401 5401 5401 5402 5402 5403 5403 5404 5404 5405 5406 5406 5407 5408 5409 5410 5411 5413 5414 5416 5417 5418 5418 5419 5419 5419 5419 5419 5418 5418 5417
5400 5399 5398 5398 5397 5397 5396 5395 5395 5395 5395 5394 5393 5393 5393 5393 5394 5394 5395 5395 5396 5397 5397 5398 5398 5399 5400 5401 5402 5403 5405 5406 5407 5408 5408 5409 5409 5409 5409 5408 5408 5407 5406
5391 5390 5389 5389 5388 5388 5387 5387 5386 5386 5386 5386 5386 5386 5385 5385 5386 5387 5387 5388 5388 5389 5389 5390 5390 5391 5392 5392 5393 5394 5395 5396 5397 5398 5399 5399 5399 5399 5399 5398 5398 5397 5396
5382 5380 5380 5380 5380 5379 5379 5378 5378 5378 5378 5377 5378 5378 5378 5378 5378 5379 5380 5380 5380 5381 5381 5382 5382 5383 5384 5384 5385 5386 5386 5387 5388 5389 5389 5390 5390 5389 5389 5389 5388 5387 5386
5373 5372 5371 5371 5371 5371 5371 5370 5370 5370 5370 5370 5370 5370 5370 5370 5371 5371 5372 5372 5373 5374 5374 5374 5375 5375 5376 5377 5377 5378 5379 5379 5379 5380 5380 5380 5380 5380 5379 5379 5378 5377 5376
5364 5363 5363 5363 5363 5363 5363 5363 5363 5363 5363 5362 5362 5362 5362 5362 5363 5364 5364 5365 5366 5366 5367 5367 5368 5368 5369 5369 5370 5370 5370 5371 5371 5371 5371 5371 5371 5371 5370 5370 5369 5368 5367
5356 5355 5355 5355 5355 5355 5355 5355 5355 5356 5355 5355 5355 5355 5355 5356 5356 5356 5357 5358 5359 5359 5360 5360 5360 5361 5361 5362 5362 5362 5363 5363 5363 5363 5363 5363 5363 5362 5362 5361 5361 5359 5358
5348 5348 5347 5347 5347 5348 5348 5348 5348 5349 5348 5348 5348 5349 5349 5349 5349 5350 5350 5351 5352 5352 5353 5353 5353 5354 5354 5354 5355 5355 5355 5356 5356 5356 5356 5356 5355 5355 5354 5354 5352 5351 5349
5342 5341 5341 5340 5340 5341 5341 5341 5342 5342 5342 5342 5342 5342 5342 5342 5343 5343 5344 5344 5345 5346 5346 5346 5347 5347 5348 5348 5348 5349 5349 5349 5349 5349 5349 5349 5348 5348 5347 5346 5345 5343 5341
5335 5335 5334 5334 5334 5334 5334 5334 5335 5335 5335 5335 5335 5336 5336 5336 5336 5337 5337 5338 5339 5339 5340 5340 5341 5341 5342 5342 5343 5343 5343 5343 5343 5343 5343 5343 5342 5341 5340 5339 5337 5336 5334
Wind_Speed
46 47 48 48 49 49 50 51 51 52 52 53 53 52 52 53 54 56 57 58 58 58 57 57 57 56 57 56 56 56 56 54 53 50 50 50 50 49 50 50 50 50 49
47 48 48 48 49 50 50 51 52 52 52 53 54 54 54 53 54 55 56 57 58 57 56 56 56 55 55 54 54 55 54 54 52 50 50 50 49 49 49 50 50 50 50
47 48 48 49 50 50 51 51 52 52 52 52 54 54 54 55 55 55 56 56 56 56 55 55 54 54 54 54 54 54 54 53 52 51 50 50 49 49 50 50 50 50 51
46 47 48 50 50 51 51 51 51 51 50 51 52 53 52 53 55 55 56 55 54 53 53 53 52 52 52 53 53 53 52 52 52 51 50 50 49 49 49 50 49 50 50
46 47 48 49 50 50 50 50 49 49 49 49 49 50 52 53 53 53 54 54 52 52 51 51 51 51 52 52 52 51 51 51 52 51 49 49 48 48 49 49 49 49 48
47 48 49 49 49 48 49 49 50 50 50 49 49 50 51 52 51 50 51 51 51 50 49 49 49 50 50 51 51 50 50 50 51 50 48 47 47 47 47 48 48 48 47
49 49 48 47 47 47 48 49 50 49 49 50 50 50 50 50 49 48 48 49 50 49 49 48 48 48 48 49 49 50 50 50 50 50 48 46 46 46 47 47 47 46 46
48 48 48 46 46 46 47 48 49 49 49 49 49 49 48 48 48 47 48 48 48 48 49 48 46 46 47 48 49 50 50 49 48 48 47 47 47 47 48 47 46 46 46
47 47 46 46 46 47 47 47 48 48 47 47 48 47 47 46 47 47 47 47 47 46 45 45 45 46 45 46 47 47 47 47 47 47 48 47 46 46 46 46 46 45 45
44 43 44 44 45 46 46 46 46 46 46 47 46 46 45 45 44 44 44 44 44 44 44 44 45 45 44 45 45 45 46 46 46 46 46 45 45 44 44 44 44 44 45
42 42 43 44 45 45 45 45 45 44 44 44 43 44 44 43 42 41 41 42 42 42 42 43 43 44 44 43 43 43 43 44 45 45 44 43 43 43 43 43 42 42 43
42 42 42 43 43 44 43 43 44 44 43 42 42 42 42 41 40 40 41 41 41 41 41 41 42 42 43 42 42 42 42 43 43 41 41 41 41 42 42 41 41 41 41
41 41 41 41 41 41 41 41 40 40 40 39 39 39 39 39 39 38 39 39 38 39 39 39 40 40 41 41 41 41 41 41 40 39 40 40 40 40 40 41 41 40 41
40 40 39 39 38 38 37 37 36 36 36 36 35 35 36 36 36 36 36 36 37 37 37 38 38 39 40 39 38 37 37 37 37 38 38 38 39 39 39 39 39 39 40
40 39 38 38 36 35 34 33 33 33 33 33 33 33 32 32 32 33 34 33 34 35 35 36 36 36 36 36 35 35 34 34 35 35 37 37 38 38 38 38 38 38 39
38 37 36 35 34 33 32 31 31 32 32 31 31 30 30 29 29 30 30 31 31 32 33 34 34 34 34 33 33 33 33 33 34 34 35 35 36 36 36 36 37 37 38
36 35 34 33 32 32 31 30 30 29 29 30 29 29 29 28 28 28 28 28 29 29 29 29 30 30 31 30 31 32 32 32 33 33 33 34 34 35 35 35 35 35 36
34 33 32 32 31 31 30 29 29 29 28 28 27 27 27 26 26 27 27 27 27 27 29 29 29 29 29 29 30 30 31 31 32 32 32 33 33 33 34 33 34 34 35
32 31 31 30 30 30 30 29 28 28 27 27 26 26 26 26 26 26 26 26 26 27 27 27 27 26 27 28 28 29 29 30 30 31 31 31 31 31 32 32 33 34 34
30 30 30 29 29 28 28 27 26 26 26 26 25 24 25 25 25 25 26 25 25 25 25 25 25 26 26 26 26 27 27 28 29 30 30 30 30 30 31 32 33 33 33
29 29 29 28 27 26 25 25 25 25 25 25 25 25 24 23 23 24 24 23 23 22 22 23 23 23 24 24 24 25 26 26 27 28 28 29 29 29 30 30 31 32 32
28 28 28 27 26 26 25 24 23 23 23 23 23 23 23 22 22 22 22 22 22 21 21 22 22 23 23 24 24 24 24 25 25 26 27 27 28 28 28 28 28 28 29
26 25 25 25 24 24 23 23 22 21 21 21 20 21 21 21 22 22 22 22 21 22 22 22 22 23 23 24 23 23 24 24 24 25 25 25 25 25 25 26 27 27 28
23 23 23 23 23 22 22 21 21 21 20 20 19 19 20 20 20 21 21 21 21 21 21 22 22 21 21 21 21 22 22 22 22 22 22 23 23 24 24 25 25 26 26
22 22 22 22 21 20 20 20 20 20 20 19 19 19 19 19 19 19 19 19 19 20 20 20 20 20 19 20 20 20 20 20 20 20 20 21 21 22 22 23 24 25 25
21 21 21 20 20 20 20 19 19 19 19 19 19 19 19 19 18 18 18 18 19 19 19 19 18 18 18 18 18 18 17 18 18 18 18 19 19 20 21 22 22 23 23
Wind_Direction
273 272 272 272 270 269 270 270 269 267 265 264 262 263 264 265 265 264 263 263 264 264 265 266 266 267 267 266 266 266 267 269 269 268 269 270 271 272 273 274 275 276 276
274 273 272 272 271 271 271 271 269 267 267 265 263 264 266 266 266 265 264 265 264 264 265 266 266 267 268 267 266 266 266 267 268 268 268 269 270 271 272 273 275 275 275
275 274 273 272 272 272 273 272 270 268 267 264 263 265 267 267 267 267 266 266 265 264 264 265 265 266 266 267 266 266 266 266 266 267 267 268 269 271 271 273 274 274 274
276 275 274 274 273 272 271 272 270 268 266 264 264 266 267 268 267 267 267 265 265 264 264 264 264 265 266 266 266 266 266 265 265 267 267 268 270 270 271 273 274 274 274
278 276 276 275 274 272 272 271 270 268 266 265 266 267 267 267 268 268 268 266 264 263 263 264 264 264 264 265 265 265 266 266 265 266 267 268 269 270 270 273 274 274 274
279 278 278 277 275 273 272 271 271 270 267 266 268 269 269 267 268 268 267 265 265 264 264 264 264 263 264 264 264 265 266 266 266 266 268 269 270 270 271 274 275 275 275
280 280 279 277 275 273 273 273 273 270 268 268 269 270 269 267 267 266 265 265 264 264 264 264 265 264 264 264 264 264 266 268 268 267 268 268 269 270 271 272 274 276 277
281 280 279 277 275 274 275 275 273 271 271 271 271 270 268 267 266 266 265 265 265 264 264 264 264 265 266 266 265 265 266 268 268 267 268 268 269 269 271 272 274 276 277
281 280 279 277 276 276 277 276 274 273 273 272 269 268 268 268 267 267 267 266 265 265 264 264 264 265 267 267 267 266 267 267 267 267 268 269 269 270 272 272 274 276 277
281 280 279 279 279 278 278 277 275 275 274 272 269 268 269 269 269 268 267 266 266 265 265 264 263 264 265 267 267 267 267 266 266 267 267 267 268 270 271 273 274 276 279
283 282 281 281 281 281 279 278 276 275 274 272 270 268 267 267 268 267 267 267 267 266 266 265 264 264 264 266 266 266 266 265 264 264 265 266 268 270 272 275 276 278 280
284 283 283 283 282 281 280 278 277 275 274 272 270 268 267 267 267 267 268 268 268 267 267 266 264 264 265 265 265 266 266 265 264 262 263 265 269 271 273 275 277 279 281
284 284 284 284 283 282 281 280 279 276 274 272 270 269 269 269 268 267 267 267 267 267 267 266 265 265 265 265 266 266 265 265 264 262 263 265 269 272 274 275 277 279 281
283 283 283 283 283 282 281 281 279 278 276 275 274 273 271 270 268 266 266 265 265 266 266 266 266 265 264 264 265 265 265 265 263 263 265 267 270 272 274 276 277 277 280
282 282 282 282 282 281 281 281 280 278 278 277 276 275 272 270 268 268 267 266 266 265 266 266 265 266 265 265 265 264 263 263 264 266 267 270 272 273 274 275 275 277 280
282 282 282 283 283 281 279 278 277 277 277 277 277 275 273 271 269 269 269 268 268 268 267 266 264 264 265 265 263 261 261 262 264 266 268 270 272 274 275 276 278 280 282
283 281 280 281 281 279 278 277 277 276 277 278 277 275 274 272 271 270 268 267 268 267 267 266 265 265 265 263 262 262 262 263 264 265 268 270 272 273 274 277 279 280 282
282 281 279 278 278 277 277 278 278 276 276 275 275 275 273 273 272 271 270 269 268 268 267 266 265 265 264 264 264 264 263 263 264 266 268 270 273 274 275 277 278 280 282
282 280 278 278 277 277 277 278 278 277 277 275 274 273 273 272 272 272 272 271 268 268 268 266 265 265 264 264 265 265 265 265 265 267 270 272 273 275 275 276 277 279 281
282 281 279 277 277 277 277 277 276 276 276 275 274 273 272 269 268 269 270 270 270 269 268 266 265 266 266 266 264 265 267 267 268 269 271 272 274 276 277 278 279 281 283
282 280 279 278 277 278 277 276 275 275 276 275 273 273 272 268 266 268 269 269 270 271 271 269 266 266 266 266 267 267 269 270 271 272 273 273 275 277 279 280 281 282 284
282 280 278 277 276 276 276 276 275 275 276 274 272 270 269 269 266 266 266 267 268 271 272 270 269 268 267 268 269 270 270 271 272 274 275 276 277 277 278 280 283 285 286
283 281 278 276 275 275 274 273 273 275 276 274 271 270 270 270 268 267 268 268 268 270 273 273 273 271 269 269 271 272 272 272 275 277 277 277 278 279 280 283 285 287 288
282 281 278 275 273 273 273 273 273 274 275 275 273 272 271 272 271 270 270 269 268 270 272 272 273 272 271 272 273 274 273 274 276 277 278 278 279 280 283 285 287 288 289
281 280 279 277 274 273 272 272 273 274 275 275 273 272 272 272 272 271 269 268 269 270 272 273 272 271 270 271 271 271 272 275 277 279 278 279 281 283 285 287 289 291 291
280 279 279 277 275 273 272 273 273 274 274 275 275 273 272 271 271 269 268 268 269 272 273 273 272 271 269 269 269 270 272 274 278 281 281 281 283 285 287 290 292 293 293